User: anonymous   Login
Location: Peebles
(55.6412°N, 3.1714°W)
Time: 23:46:23
(UTC+00:00)
Language:

CARTOSAT-1 - Orbit

View from above orbital plane
View from above orbital plane
View from above satellite
View from above satellite

Ground track
Ground track

The orbit data is extracted from the following two-line orbital elements,

1 28649U 05017A   21330.93418210  .00000145  00000-0  23635-4 0  9992
2 28649  97.7492  32.5787 0002409 124.0449 236.0995 14.83861475896701
Epoch (UTC): 26 November 2021 22:25:13
Eccentricity: 0.0002409
inclination: 97.7492°
perigee height: 615 km
apogee height: 619 km
right ascension of ascending node: 32.5787°
argument of perigee: 124.0449°
revolutions per day: 14.83861475
mean anomaly at epoch: 236.0995°
orbit number at epoch: 89670

The dashed part of the orbit path shows where the satellite is in the earth's shadow,  

DLR